• In Belarus
  • List of Countries
  • For 7 days
  • Water Temperature
  • Satellite Maps
  • Weather Map
  • Weather Widgets
  • user-avatar
    Login

    Hourly Weather Artashat

    Today, 21 August, Tuesday

    Time Temperature Precipitation Wind Pressure Humidity
    00:00 +16°C° 0.1 mm 1 mps 604 mmHg 61%
    01:00 +16°C° 0 mm 1 mps 604 mmHg 62%
    02:00 +15°C° 0 mm 1 mps 604 mmHg 64%
    03:00 +15°C° 0 mm 1 mps 604 mmHg 66%
    04:00 +15°C° 0 mm 1 mps 604 mmHg 66%
    05:00 +15°C° 0 mm 1 mps 604 mmHg 66%
    06:00 +15°C° 0 mm 1 mps 604 mmHg 66%
    07:00 +16°C° 0 mm 1 mps 604 mmHg 59%
    08:00 +19°C° 0 mm 1 mps 605 mmHg 53%
    09:00 +20°C° 0 mm 2 mps 605 mmHg 46%
    10:00 +21°C° 0 mm 2 mps 606 mmHg 42%
    11:00 +23°C° 0 mm 2 mps 606 mmHg 37%
    12:00 +25°C° 0 mm 2 mps 606 mmHg 33%
    13:00 +25°C° 0 mm 2 mps 606 mmHg 31%
    14:00 +26°C° 0 mm 2 mps 606 mmHg 29%
    15:00 +27°C° 0 mm 3 mps 605 mmHg 28%
    16:00 +26°C° 0 mm 3 mps 605 mmHg 29%
    17:00 +26°C° 0 mm 2 mps 605 mmHg 30%
    18:00 +26°C° 0 mm 2 mps 605 mmHg 31%
    19:00 +24°C° 0 mm 2 mps 605 mmHg 35%
    20:00 +21°C° 0 mm 2 mps 604 mmHg 40%
    21:00 +21°C° 0 mm 1 mps 604 mmHg 45%
    22:00 +20°C° 0 mm 1 mps 604 mmHg 47%
    23:00 +20°C° 0 mm 1 mps 604 mmHg 49%

    Tomorrow, 22 August, Wednesday

    Time Temperature Precipitation Wind Pressure Humidity
    00:00 +19°C° 0 mm 1 mps 604 mmHg 50%
    01:00 +18°C° 0 mm 1 mps 604 mmHg 52%
    02:00 +18°C° 0 mm 1 mps 603 mmHg 53%
    03:00 +16°C° 0 mm 1 mps 603 mmHg 55%
    04:00 +16°C° 0 mm 1 mps 603 mmHg 55%
    05:00 +16°C° 0 mm 1 mps 603 mmHg 56%
    06:00 +16°C° 0 mm 1 mps 603 mmHg 57%
    07:00 +19°C° 0 mm 1 mps 604 mmHg 50%
    08:00 +21°C° 0 mm 1 mps 604 mmHg 43%
    09:00 +23°C° 0 mm 2 mps 605 mmHg 37%
    10:00 +24°C° 0 mm 2 mps 605 mmHg 33%
    11:00 +25°C° 0 mm 2 mps 605 mmHg 29%
    12:00 +26°C° 0 mm 2 mps 605 mmHg 26%
    13:00 +27°C° 0 mm 2 mps 605 mmHg 24%
    14:00 +28°C° 0 mm 2 mps 605 mmHg 22%
    15:00 +28°C° 0 mm 2 mps 605 mmHg 21%
    16:00 +28°C° 0 mm 3 mps 605 mmHg 22%
    17:00 +27°C° 0 mm 3 mps 605 mmHg 23%
    18:00 +27°C° 0 mm 3 mps 604 mmHg 24%
    19:00 +25°C° 0 mm 2 mps 604 mmHg 28%
    20:00 +23°C° 0 mm 2 mps 604 mmHg 32%
    21:00 +21°C° 0 mm 2 mps 604 mmHg 36%
    22:00 +20°C° 0 mm 2 mps 604 mmHg 39%
    23:00 +19°C° 0 mm 2 mps 604 mmHg 42%

    Day after tomorrow, 23 August, Thursday

    Time Temperature Precipitation Wind Pressure Humidity
    00:00 +18°C° 0 mm 2 mps 604 mmHg 45%
    01:00 +18°C° 0 mm 2 mps 604 mmHg 48%
    02:00 +17°C° 0 mm 2 mps 603 mmHg 51%
    03:00 +16°C° 0 mm 2 mps 603 mmHg 54%
    04:00 +16°C° 0 mm 1 mps 603 mmHg 56%
    05:00 +16°C° 0 mm 1 mps 603 mmHg 57%
    06:00 +16°C° 0 mm 1 mps 603 mmHg 59%
    07:00 +18°C° 0 mm 1 mps 604 mmHg 52%
    08:00 +19°C° 0 mm 2 mps 604 mmHg 46%
    09:00 +21°C° 0 mm 2 mps 605 mmHg 39%
    10:00 +23°C° 0 mm 2 mps 605 mmHg 35%
    11:00 +25°C° 0 mm 2 mps 605 mmHg 31%
    12:00 +26°C° 0 mm 2 mps 605 mmHg 27%
    13:00 +27°C° 0 mm 3 mps 605 mmHg 25%
    14:00 +27°C° 0 mm 3 mps 605 mmHg 24%
    15:00 +28°C° 0 mm 3 mps 605 mmHg 22%
    16:00 +28°C° 0 mm 3 mps 605 mmHg 23%
    17:00 +27°C° 0 mm 3 mps 605 mmHg 24%
    18:00 +26°C° 0 mm 3 mps 605 mmHg 25%
    19:00 +25°C° 0 mm 3 mps 605 mmHg 29%
    20:00 +22°C° 0 mm 3 mps 605 mmHg 33%
    21:00 +21°C° 0 mm 2 mps 605 mmHg 37%
    22:00 +20°C° 0 mm 2 mps 605 mmHg 39%
    23:00 +19°C° 0 mm 2 mps 604 mmHg 41%

    24 August, Friday

    Time Temperature Precipitation Wind Pressure Humidity
    00:00 +18°C° 0 mm 2 mps 604 mmHg 43%
    01:00 +18°C° 0 mm 2 mps 604 mmHg 45%
    02:00 +17°C° 0 mm 2 mps 604 mmHg 47%
    03:00 +16°C° 0 mm 1 mps 603 mmHg 48%
    04:00 +16°C° 0 mm 1 mps 603 mmHg 49%
    05:00 +16°C° 0 mm 1 mps 603 mmHg 51%
    06:00 +16°C° 0 mm 1 mps 603 mmHg 52%
    07:00 +19°C° 0 mm 1 mps 604 mmHg 46%
    08:00 +20°C° 0 mm 2 mps 605 mmHg 39%
    09:00 +23°C° 0 mm 2 mps 605 mmHg 33%
    10:00 +24°C° 0 mm 2 mps 605 mmHg 30%
    11:00 +25°C° 0 mm 2 mps 605 mmHg 27%
    12:00 +27°C° 0 mm 3 mps 606 mmHg 24%
    13:00 +27°C° 0 mm 3 mps 605 mmHg 22%
    14:00 +28°C° 0 mm 3 mps 605 mmHg 21%
    15:00 +29°C° 0 mm 3 mps 605 mmHg 20%
    16:00 +28°C° 0 mm 3 mps 605 mmHg 21%
    17:00 +28°C° 0 mm 3 mps 605 mmHg 22%
    18:00 +27°C° 0 mm 3 mps 604 mmHg 23%
    19:00 +25°C° 0 mm 3 mps 604 mmHg 27%
    20:00 +24°C° 0 mm 2 mps 604 mmHg 31%
    21:00 +21°C° 0 mm 2 mps 604 mmHg 35%
    22:00 +20°C° 0 mm 2 mps 604 mmHg 37%
    23:00 +19°C° 0 mm 2 mps 604 mmHg 38%

    25 August, Saturday

    Time Temperature Precipitation Wind Pressure Humidity
    00:00 +19°C° 0 mm 2 mps 603 mmHg 40%
    01:00 +19°C° 0 mm 1 mps 603 mmHg 41%
    02:00 +18°C° 0 mm 1 mps 603 mmHg 43%
    03:00 +18°C° 0 mm 1 mps 602 mmHg 45%
    04:00 +16°C° 0 mm 1 mps 602 mmHg 45%
    05:00 +16°C° 0 mm 1 mps 602 mmHg 46%
    06:00 +16°C° 0 mm 1 mps 602 mmHg 47%
    07:00 +19°C° 0 mm 1 mps 603 mmHg 41%
    08:00 +21°C° 0 mm 1 mps 604 mmHg 35%
    09:00 +23°C° 0 mm 1 mps 605 mmHg 29%
    10:00 +25°C° 0 mm 2 mps 605 mmHg 26%
    11:00 +26°C° 0 mm 2 mps 605 mmHg 23%
    12:00 +28°C° 0 mm 2 mps 605 mmHg 20%
    13:00 +28°C° 0 mm 2 mps 605 mmHg 19%
    14:00 +29°C° 0 mm 2 mps 605 mmHg 18%
    15:00 +30°C° 0 mm 3 mps 605 mmHg 17%
    16:00 +29°C° 0 mm 2 mps 605 mmHg 18%
    17:00 +28°C° 0 mm 2 mps 604 mmHg 19%
    18:00 +28°C° 0 mm 2 mps 604 mmHg 21%
    19:00 +26°C° 0 mm 2 mps 604 mmHg 25%
    20:00 +24°C° 0 mm 2 mps 604 mmHg 30%
    21:00 +21°C° 0 mm 2 mps 603 mmHg 34%
    22:00 +20°C° 0 mm 2 mps 603 mmHg 36%
    23:00 +20°C° 0 mm 2 mps 603 mmHg 37%

    26 August, Sunday

    Time Temperature Precipitation Wind Pressure Humidity
    00:00 +19°C° 0 mm 2 mps 603 mmHg 38%
    01:00 +19°C° 0 mm 1 mps 602 mmHg 40%
    02:00 +19°C° 0 mm 1 mps 602 mmHg 41%
    03:00 +18°C° 0 mm 1 mps 602 mmHg 43%
    04:00 +18°C° 0 mm 1 mps 602 mmHg 43%
    05:00 +18°C° 0 mm 1 mps 602 mmHg 44%
    06:00 +18°C° 0 mm 1 mps 602 mmHg 45%
    07:00 +20°C° 0 mm 1 mps 603 mmHg 39%
    08:00 +22°C° 0 mm 1 mps 603 mmHg 33%
    09:00 +24°C° 0 mm 1 mps 604 mmHg 27%
    10:00 +26°C° 0 mm 2 mps 604 mmHg 25%
    11:00 +27°C° 0 mm 2 mps 604 mmHg 22%
    12:00 +28°C° 0 mm 2 mps 604 mmHg 19%
    13:00 +29°C° 0 mm 2 mps 604 mmHg 18%
    14:00 +30°C° 0 mm 3 mps 604 mmHg 16%
    15:00 +30°C° 0 mm 3 mps 604 mmHg 15%
    16:00 +30°C° 0 mm 3 mps 603 mmHg 17%
    17:00 +29°C° 0 mm 2 mps 603 mmHg 18%
    18:00 +28°C° 0 mm 2 mps 603 mmHg 20%
    19:00 +26°C° 0 mm 2 mps 602 mmHg 24%
    20:00 +24°C° 0 mm 2 mps 602 mmHg 29%
    21:00 +22°C° 0 mm 1 mps 602 mmHg 34%
    22:00 +22°C° 0 mm 1 mps 602 mmHg 35%
    23:00 +21°C° 0 mm 1 mps 601 mmHg 37%
    Show more